Wink, TX

1:25 PM CDT on May 27, 2017 (GMT -0500)
Winkler County

Weather History for KINK - October, 2012

Change the Weather History Date:

Friday, October 5, 2012

  Actual Average Record
Temperature  
Mean Temperature 69 °F -  
Max Temperature 86 °F 83 °F 100 °F (2007)
Min Temperature 52 °F 56 °F 39 °F (1985)
Cooling Degree Days 4    
Growing Degree Days 19 (Base 50)    
Moisture  
Dew Point 55 °F    
Average Humidity 72    
Maximum Humidity 94    
Minimum Humidity 31    
Precipitation  
Precipitation 0.00 in - - ()
Sea Level Pressure  
Sea Level Pressure 29.99 in    
Wind  
Wind Speed 5 mph (East)    
Max Wind Speed 18 mph    
Max Gust Speed 22 mph    
Visibility 10 miles    
Events      
Averages and records for this station are not official NWS values.
T = Trace of Precipitation, MM = Missing Value Source: NWS Daily Summary

Daily Weather History Graph

Daily Weather History Graph

Search for Another Location

Airport or City:

Trip Planner

Search our weather history database for the weather conditions in past years. The results will help you decide how hot, cold, wet, or windy it might be!

Date:

Astronomy

Oct. 05, 2012 Rise Set
Actual Time 7:49 AM CDT 7:31 PM CDT
Civil Twilight 7:25 AM CDT 7:56 PM CDT
Nautical Twilight 6:56 AM CDT 8:24 PM CDT
Astronomical Twilight 6:28 AM CDT 8:52 PM CDT
Moon 11:14 PM CDT (10/5) 12:42 PM CDT (10/5)
Length of Visible Light 12h 31m
Length of Day
11h 42m
Waning Gibbous, 74% of the Moon is Illuminated
Oct 5
Waning Gibbous
Oct 8
Last Quarter
Oct 15
New
Oct 21
First Quarter
Oct 29
Full

Hourly Weather History & Observations

Time (CDT) Temp. Heat Index Dew Point Humidity Pressure Visibility Wind Dir Wind Speed Gust Speed Precip Events Conditions
12:53 AM 59.0 °F - 53.1 °F 81% 30.04 in 10.0 mi East 4.6 mph - N/A   Clear
1:53 AM 57.9 °F - 52.0 °F 81% 30.02 in 10.0 mi East 5.8 mph - N/A   Clear
2:53 AM 57.2 °F - 53.6 °F 88% 30.10 in 10.0 mi East 3.5 mph - N/A   Clear
3:53 AM 55.9 °F - 53.1 °F 90% 30.00 in 10.0 mi Calm Calm - N/A   Clear
4:53 AM 55.0 °F - 52.0 °F 89% 29.97 in 10.0 mi East 5.8 mph - N/A   Clear
5:53 AM 54.0 °F - 52.0 °F 93% 29.99 in 10.0 mi NNE 4.6 mph - N/A   Clear
6:53 AM 53.1 °F - 51.1 °F 93% 30.01 in 10.0 mi NNE 6.9 mph - N/A   Clear
7:53 AM 52.0 °F - 50.0 °F 93% 30.02 in 8.0 mi North 6.9 mph - N/A   Clear
8:53 AM 55.0 °F - 52.0 °F 89% 30.04 in 10.0 mi NNE 5.8 mph - N/A   Clear
9:39 AM 57.2 °F - 53.6 °F 88% 30.12 in 10.0 mi ENE 5.8 mph - N/A   Mostly Cloudy
9:53 AM 59.0 °F - 54.0 °F 83% 30.05 in 10.0 mi ENE 5.8 mph - N/A   Overcast
10:28 AM 57.2 °F - 55.4 °F 94% 30.13 in 4.0 mi East 5.8 mph - N/A   Overcast
10:53 AM 60.1 °F - 57.0 °F 90% 30.05 in 7.0 mi East 4.6 mph - N/A   Overcast
11:12 AM 60.8 °F - 57.2 °F 88% 30.13 in 8.0 mi ESE 3.5 mph - N/A   Overcast
11:44 AM 64.4 °F - 57.2 °F 77% 30.13 in 10.0 mi Calm Calm - N/A   Mostly Cloudy
11:53 AM 64.9 °F - 57.0 °F 75% 30.04 in 10.0 mi Calm Calm - N/A   Scattered Clouds
12:53 PM 70.0 °F - 57.0 °F 63% 30.01 in 10.0 mi Variable 3.5 mph - N/A   Clear
1:53 PM 75.0 °F - 54.0 °F 48% 29.97 in 10.0 mi Calm Calm - N/A   Clear
2:53 PM 78.1 °F - 55.0 °F 45% 29.93 in 10.0 mi ESE 4.6 mph - N/A   Clear
3:53 PM 82.9 °F 81.8 °F 53.1 °F 36% 29.89 in 10.0 mi SSE 6.9 mph - N/A   Clear
4:53 PM 84.9 °F 83.2 °F 53.1 °F 33% 29.86 in 10.0 mi SE 9.2 mph - N/A   Clear
5:53 PM 86.0 °F - 52.0 °F 31% 29.83 in 10.0 mi SE 10.4 mph - N/A   Clear
6:53 PM 84.0 °F 82.5 °F 53.1 °F 34% 29.84 in 10.0 mi SSE 9.2 mph - N/A   Clear
7:53 PM 75.2 °F - 55.4 °F 50% 29.94 in 10.0 mi SSE 6.9 mph - N/A   Clear
8:53 PM 73.9 °F - 55.0 °F 52% 29.88 in 10.0 mi East 6.9 mph - N/A   Clear
9:53 PM 70.0 °F - 61.0 °F 73% 29.90 in 10.0 mi East 18.4 mph 21.9 mph N/A   Clear
10:53 PM 66.0 °F - 59.0 °F 78% 29.93 in 10.0 mi NE 8.1 mph - N/A   Clear
11:53 PM 64.9 °F - 59.0 °F 81% 29.92 in 10.0 mi ENE 12.7 mph 18.4 mph N/A   Clear